Location: Unnamed
(51.5169°N, 0.1311°W)
Time: 21:33:20
(UTC+01:00)

Tiros 1 - Pass Details

Date: 07 August 2024
Orbit: 623 x 655 km, 48.4° (Epoch: 16 September)

Event Time Altitude Azimuth Distance (km) Brightness Sun altitude
Rises 13:25:43 0° 278° (W) 2,970 10.6 54.5°
Reaches altitude 10° 13:28:39 10° 260° (W) 2,050 10.0 54.4°
Maximum altitude 13:31:53 19° 217° (SW) 1,551 10.0 54.3°
Drops below altitude 10° 13:35:06 10° 173° (S) 2,028 10.5 54.2°
Sets 13:38:00 0° 155° (SSE) 2,926 10.9 54.1°
